Terminal Aerodrome Forecast
Issued by NWS Charleston, WV

Current Version | Previous Version | Text Only | Print | Product List | Glossary Off
Versions: 1 2 3 4 5 6 7 8 9 10 11 12 13 14 15 16 17 18 19 20 21 22 23 24

393
FTUS41 KRLX 300535
TAFHTS
TAF
KHTS 300535Z 3006/0106 10005KT P6SM SCT120
     FM300800 12006KT 6SM -SHRA OVC040
     FM301400 22008G15KT 3SM SHRA OVC030
     FM301700 24007G18KT 3SM SHRA OVC025
     FM302000 25008G21KT 6SM BR BKN030
     FM302200 25008G16KT P6SM BKN035=

USA.gov is the U.S. government's official web portal to all federal, state and local government web resources and services.